Location: Observatoire
(46.1952°N, 5.3391°E)
Time: 22:44:31
(UTC+01:00)

Tiros 1 despin weight - Pass Details

Date: 25 February 2026
Orbit: 556 x 593 km, 48.2° (Epoch: 9 March)

Event Time Altitude Azimuth Distance (km) Brightness Sun altitude
Rises 16:43:58 0° 285° (WNW) 2,744 ? 14.5°
Reaches altitude 10° 16:46:14 10° 286° (WNW) 1,843 ? 14.1°
Maximum altitude 16:50:26 84° 14° (NNE) 563 ? 13.5°
Drops below altitude 10° 16:54:38 10° 104° (ESE) 1,833 ? 12.8°
Sets 16:56:52 0° 105° (ESE) 2,727 ? 12.5°
